Location: Bremen
(53.0793°N, 8.8017°E)
Time: 14:49:03
(UTC+01:00)

S-56A Canister/Altair - Pass Details

Date: 01 December 2021
Orbit: 634 x 2499 km, 38.9° (Epoch: 28 January)

Event Time Altitude Azimuth Distance (km) Brightness Sun altitude
Rises 03:53:33 0° 248° (WSW) 3,909 - -38.1°
Reaches altitude 10° 03:57:26 10° 231° (SW) 2,634 - -37.6°
Maximum altitude 04:01:21 18° 190° (S) 1,854 - -37.0°
Drops below altitude 10° 04:04:41 10° 147° (SSE) 2,167 - -36.5°
Exits shadow 04:05:32 - 139° (SE) 2,383 10.3 -36.4°
Sets 04:07:28 0° 127° (SE) 2,973 11.0 -36.1°
